Flag for India Weather past 2 weeks in Karaikudi, Tamil Nadu, India

Now
77 °F

Fog.


Feels Like: 78 °F
Forecast: 72 / 78 °F
Wind: 6 mph from Northeast

Location: Tiruchchirapalli

Current Time: Dec 18, 2014 at 11:35:36 PM

Latest Report: Dec 18, 2014 at 11:10 PM


Visibility: 2 mi

Pressure: 29.95 "Hg

Humidity: 94%

Dew point: 75 °F

Location of KaraikudiLocation

Historic Weather in Karaikudi — Graph

°F

Karaikudi temperature yesterday

Maximum temperature yesterday: 82 °F (at 12:10 PM)
Minimum temperature yesterday: 73 °F (at 12:40 AM)
Average temperature yesterday: 76 °F

Past Weeks' High & Low Weather Summary

 TemperatureHumidityPressure
High91 °F (Dec 9, 1:40 PM)100% (Dec 11, 6:10 AM)29.98 "Hg (Dec 11, 6:10 AM)
Low66 °F (Dec 5, 5:40 AM)51% (Dec 4, 3:40 PM)29.80 "Hg (Dec 7, 3:40 PM)
Average78 °F81%29.90 "Hg
* Reported Dec 3 9:40 PM — Dec 18 10:10 PM, Karaikudi, Weather by CustomWeather, © 2014

Note: Actual official high and low records may vary slightly from our data, if they occured in-between our weather recording intervals... More about our weather records

Advertising

Karaikudi weather history for previous 24 hours

 ConditionsComfort  
Time TempWeatherWind HumidityBarometerVisibility
10:10 PM
Dec 18
77 °FFog.7 mph94%29.98 "Hg2 mi
9:40 PM77 °FFog.5 mph94%29.98 "Hg2 mi
8:40 PM77 °FPartly cloudy.6 mph94%29.95 "Hg1 mi
7:40 PM75 °FPartly cloudy.3 mph94%29.92 "Hg1 mi
7:10 PM75 °FPartly cloudy.3 mph94%29.92 "Hg1 mi
6:40 PM75 °FFog.6 mph100%29.89 "Hg1 mi
6:10 PM77 °FFog.6 mph94%29.89 "Hg1 mi
5:40 PM77 °FFog.5 mph94%29.89 "Hg1 mi
5:10 PM77 °FFog.8 mph94%29.86 "Hg1 mi
4:40 PM77 °FFog.12 mph94%29.86 "Hg1 mi
3:10 PM81 °FFog.12 mph84%29.86 "Hg2 mi
2:40 PM81 °FFog.7 mph84%29.86 "Hg2 mi
2:10 PM81 °FFog.10 mph79%29.86 "Hg2 mi
1:40 PM79 °FFog.6 mph84%29.89 "Hg2 mi
1:10 PM77 °FLight rain. More clouds than sun.7 mph89%29.89 "Hg2 mi
12:10 PM81 °FPartly sunny.9 mph79%29.92 "Hg4 mi
11:40 AM79 °FPartly sunny.9 mph84%29.95 "Hg4 mi
11:10 AM77 °FPartly sunny.10 mph83%29.95 "Hg4 mi
10:40 AM75 °FFog.10 mph89%29.95 "Hg3 mi
10:10 AM73 °FFog.6 mph94%29.98 "Hg3 mi
9:40 AM73 °FFog.6 mph94%29.98 "Hg3 mi
8:40 AM72 °FFog.6 mph94%29.98 "Hg2 mi
8:10 AM72 °FFog.5 mph94%29.98 "Hg2 mi
6:40 AM72 °FLight rain. Mostly cloudy.10 mph94%29.95 "Hg1 mi
4:40 AM73 °FFog.7 mph94%29.89 "Hg2 mi
4:10 AM73 °FFog.8 mph94%29.89 "Hg2 mi
3:40 AM73 °FFog.8 mph94%29.89 "Hg2 mi
3:10 AM73 °FFog.7 mph94%29.89 "Hg2 mi
1:40 AM75 °FLight rain. Mostly cloudy.10 mph94%29.92 "Hg1 mi
1:10 AM75 °FFog.8 mph89%29.92 "Hg2 mi
12:40 AM75 °FFog.7 mph89%29.92 "Hg2 mi
12:10 AM75 °FFog.7 mph89%29.92 "Hg2 mi
11:40 PM
Dec 17
75 °FFog.9 mph89%29.95 "Hg2 mi
Weather by CustomWeather, © 2014

See weather overviewHow to use our weather pages